EA5DHO-13 Weather Reports


time (UTC)temp
F
wind
direction
speed
knots
gust
knots
rain 1hr
in
rain 24hr
in
rain mn
in
humidity
%
barometer
mb
20260506233502 61 270 1.7 1.7 0.00 0.00 0.00 74 1015.0
20260506232459 62 270 0.9 1.7 0.00 0.00 0.00 73 1015.1
20260506231455 62 293 1.7 1.7 0.00 0.00 0.00 72 1015.2
20260506230454 62 338 0.9 1.7 0.00 0.00 0.00 72 1015.2
20260506225449 62 315 1.7 1.7 0.00 0.00 0.00 72 1015.2
20260506224446 62 330 0.9 1.7 0.00 0.00 0.00 72 1015.2
20260506223443 62 334 0.9 1.7 0.00 0.00 0.00 71 1015.2
20260506222441 62 330 1.7 3.5 0.00 0.00 0.00 71 1015.2
20260506221437 62 330 0.9 1.7 0.00 0.00 0.00 71 1015.1
20260506220434 62 315 0.0 1.7 0.00 0.00 0.00 71 1015.2
20260506215430 62 0.0 1.7 0.00 0.00 0.00 70 1015.3
20260506214427 63 323 0.9 3.5 0.00 0.00 0.00 70 1015.2
20260506213423 63 0.0 0.0 0.00 0.00 0.00 70 1015.1
20260506212420 63 15 0.9 1.7 0.00 0.00 0.00 69 1015.0
20260506211417 64 0.0 0.0 0.00 0.00 0.00 67 1015.0
20260506210515 64 45 0.9 1.7 0.00 0.00 0.00 67 1014.8
20260506205512 64 68 1.7 3.5 0.00 0.00 0.00 68 1014.7
20260506204507 64 90 1.7 5.2 0.00 0.00 0.00 68 1014.7
20260506203526 64 60 3.5 6.1 0.00 0.00 0.00 68 1014.6
20260506202501 64 90 1.7 3.5 0.00 0.00 0.00 69 1014.5
20260506201459 64 51 1.7 3.5 0.00 0.00 0.00 69 1014.3
20260506200516 64 99 3.5 5.2 0.00 0.00 0.00 68 1014.3
20260506195513 64 90 3.5 5.2 0.00 0.00 0.00 68 1014.2
20260506194448 64 90 2.6 3.5 0.00 0.00 0.00 68 1014.1
20260506193446 64 81 3.5 5.2 0.00 0.00 0.00 68 1014.0
20260506192443 64 58 3.5 7.0 0.00 0.00 0.00 68 1013.9
20260506191438 64 68 5.2 7.8 0.00 0.00 0.00 69 1013.8
20260506190435 64 68 5.2 7.8 0.00 0.00 0.00 68 1013.7
20260506185453 64 54 5.2 9.6 0.00 0.00 0.00 68 1013.7
20260506184429 64 68 4.3 7.0 0.00 0.00 0.00 68 1013.6
20260506183426 64 90 5.2 7.8 0.00 0.00 0.00 67 1013.4
20260506182422 65 80 3.5 3.5 0.00 0.00 0.00 67 1013.5
20260506181419 64 54 4.3 7.0 0.00 0.00 0.00 66 1013.3
20260506180416 64 90 5.2 7.8 0.00 0.00 0.00 67 1013.2
20260506175513 65 59 5.2 7.8 0.00 0.00 0.00 67 1013.1
20260506174510 65 127 5.2 11.3 0.00 0.00 0.00 67 1013.2
20260506173506 65 83 7.8 9.6 0.00 0.00 0.00 67 1013.2
20260506172503 65 69 5.2 9.6 0.00 0.00 0.00 67 1013.3
20260506171501 65 68 7.0 11.3 0.00 0.00 0.00 67 1013.4
20260506170538 65 68 6.1 9.6 0.00 0.00 0.00 67 1013.4
20260506165453 65 53 6.1 9.6 0.00 0.00 0.00 67 1013.5
20260506164452 65 56 5.2 12.2 0.00 0.00 0.00 67 1013.6
20260506163507 65 29 7.0 11.3 0.00 0.00 0.00 68 1013.5
20260506162444 65 68 8.7 13.0 0.00 0.00 0.00 67 1013.5
20260506161442 65 51 7.8 14.8 0.00 0.00 0.00 67 1013.4
20260506160439 65 96 7.8 13.0 0.00 0.00 0.00 67 1013.4
20260506155455 64 68 6.1 15.6 0.00 0.00 0.00 66 1013.6
20260506154511 66 68 7.8 12.2 0.00 0.00 0.00 65 1013.6
20260506153449 65 74 8.7 13.0 0.00 0.00 0.00 66 1013.4
20260506152426 64 79 12.2 15.6 0.00 0.00 0.00 67 1013.4
20260506151443 65 55 7.8 13.0 0.00 0.00 0.00 66 1013.0
20260506150418 65 68 7.8 12.2 0.00 0.00 0.00 67 1013.4
20260506145415 65 110 7.0 12.2 0.00 0.00 0.00 66 1013.8
20260506144513 65 99 6.1 9.6 0.00 0.00 0.00 64 1013.8
20260506143508 65 96 7.0 12.2 0.00 0.00 0.00 65 1013.7
20260506142525 65 120 6.1 11.3 0.00 0.00 0.00 66 1013.8
20260506141502 65 62 5.2 12.2 0.00 0.00 0.00 67 1013.9
20260506140500 65 126 7.0 11.3 0.00 0.00 0.00 66 1013.9
20260506135517 66 182 6.1 13.0 0.00 0.00 0.00 67 1013.8
20260506134452 66 74 7.8 13.0 0.00 0.00 0.00 65 1013.8
20260506133450 67 97 9.6 15.6 0.00 0.00 0.00 60 1013.8
20260506132446 67 116 5.2 9.6 0.00 0.00 0.00 60 1013.9
20260506131444 67 113 10.4 15.6 0.00 0.00 0.00 62 1013.9
20260506130441 68 102 7.8 17.4 0.00 0.00 0.00 58 1014.0
20260506125436 67 76 9.6 13.9 0.00 0.00 0.00 61 1014.0
20260506124433 67 113 11.3 15.6 0.00 0.00 0.00 58 1014.1
20260506123430 68 100 7.8 14.8 0.00 0.00 0.00 57 1014.1
20260506122427 67 95 8.7 18.2 0.00 0.00 0.00 61 1014.2
20260506121445 68 97 5.2 11.3 0.00 0.00 0.00 61 1014.2
20260506120420 69 102 3.5 11.3 0.00 0.00 0.00 60 1014.2
20260506115417 67 56 9.6 18.2 0.00 0.00 0.00 60 1014.3
20260506114514 69 119 6.1 12.2 0.00 0.00 0.00 57 1014.5
20260506113531 70 105 3.5 7.0 0.00 0.00 0.00 56 1014.4
20260506112507 68 85 7.0 13.0 0.00 0.00 0.00 57 1014.4
20260506111524 69 127 3.5 7.0 0.00 0.00 0.00 53 1014.4
20260506110502 67 90 7.0 11.3 0.00 0.00 0.00 57 1014.4
20260506105519 67 90 8.7 12.2 0.00 0.00 0.00 54 1014.5
20260506104455 69 102 5.2 9.6 0.00 0.00 0.00 53 1014.6
20260506103512 67 68 9.6 11.3 0.00 0.00 0.00 53 1014.5
20260506102448 68 99 6.1 9.6 0.00 0.00 0.00 55 1014.6
20260506101505 68 82 8.7 11.3 0.00 0.00 0.00 53 1014.6
20260506100442 69 90 4.3 11.3 0.00 0.00 0.00 55 1014.6
20260506095438 68 90 7.0 11.3 0.00 0.00 0.00 56 1014.6
20260506094435 68 180 2.6 5.2 0.00 0.00 0.00 55 1014.6
20260506093452 68 84 1.7 3.5 0.00 0.00 0.00 55 1014.6
20260506092429 70 82 0.9 1.7 0.00 0.00 0.00 52 1014.5
20260506091426 70 166 1.7 9.6 0.00 0.00 0.00 52 1014.5
20260506090422 68 177 1.7 3.5 0.00 0.00 0.00 56 1014.6
20260506085419 69 158 1.7 1.7 0.00 0.00 0.00 56 1014.5
20260506084436 69 180 0.0 1.7 0.00 0.00 0.00 56 1014.6
20260506083513 67 0.0 1.7 0.00 0.00 0.00 61 1014.7
20260506082510 65 177 1.7 3.5 0.00 0.00 0.00 62 1014.7
20260506081506 64 261 2.6 3.5 0.00 0.00 0.00 63 1014.6
20260506080503 64 270 2.6 3.5 0.00 0.00 0.00 64 1014.6
20260506073455 62 276 1.7 3.5 0.00 0.00 0.00 68 1014.6
20260506072450 62 285 0.9 1.7 0.00 0.00 0.00 69 1014.5
20260506071448 61 244 1.7 3.5 0.00 0.00 0.00 70 1014.5
20260506070445 60 277 1.7 3.5 0.00 0.00 0.00 72 1014.4
20260506062431 59 248 1.7 1.7 0.00 0.00 0.00 77 1014.5
20260506061449 58 248 2.6 3.5 0.00 0.00 0.00 77 1014.4
20260506060426 58 248 0.9 1.7 0.00 0.00 0.00 79 1014.3
20260506050505 57 0.0 0.0 0.00 0.00 0.00 83 1014.2
20260506044459 57 252 2.6 3.5 0.00 0.00 0.00 82 1014.1
20260506043457 57 240 1.7 3.5 0.00 0.00 0.00 81 1014.1
20260506042453 57 184 1.7 3.5 0.00 0.00 0.00 81 1014.0
20260506041510 57 270 1.7 1.7 0.00 0.00 0.00 80 1013.7
20260506040447 57 257 1.7 1.7 0.00 0.00 0.00 80 1013.8
20260506035505 57 225 0.9 3.5 0.00 0.00 0.00 79 1013.7
20260506034439 58 0.0 0.0 0.00 0.00 0.00 78 1013.8
20260506033436 59 270 1.7 1.7 0.00 0.00 0.00 77 1013.8
20260506032433 59 0.0 1.7 0.00 0.00 0.00 77 1013.9
20260506031430 58 293 0.9 1.7 0.00 0.00 0.00 78 1014.0
20260506030426 58 0.0 0.0 0.00 0.00 0.00 79 1014.0
20260506025423 58 248 0.9 1.7 0.00 0.00 0.00 78 1014.0
20260506024420 58 248 1.7 3.5 0.00 0.00 0.00 77 1014.1
20260506023438 58 278 2.6 3.5 0.00 0.00 0.00 75 1014.0
20260506022513 59 248 0.9 1.7 0.00 0.00 0.00 73 1013.9
20260506021512 59 240 1.7 1.7 0.00 0.00 0.00 72 1013.9
20260506020508 60 248 1.7 3.5 0.00 0.00 0.00 71 1013.8
20260506015525 60 256 2.6 5.2 0.00 0.00 0.00 70 1013.7
20260506014501 60 259 2.6 5.2 0.00 0.00 0.00 69 1013.8
20260506013458 61 270 1.7 1.7 0.00 0.00 0.00 68 1013.7
20260506012456 61 270 1.7 3.5 0.00 0.00 0.00 67 1013.8
20260506011452 61 248 0.9 1.7 0.00 0.00 0.00 66 1013.9
20260506010510 61 248 1.7 3.5 0.00 0.00 0.00 65 1014.0
20260506005444 62 203 1.7 1.7 0.00 0.00 0.00 64 1014.1
20260506004441 62 180 1.7 1.7 0.00 0.00 0.00 64 1014.2
20260506003438 61 0.0 0.0 0.00 0.00 0.00 65 1014.4
20260506002435 62 158 1.7 1.7 0.00 0.00 0.00 64 1014.4
20260506001432 62 45 0.9 1.7 0.00 0.00 0.00 65 1014.4
20260506000431 61 0.0 0.0 0.00 0.00 0.00 64 1014.5
20260505235426 61 0.0 1.7 0.00 0.00 0.00 65 1014.5
20260505234423 61 0.0 0.0 0.00 0.00 0.00 65 1014.5